Cloud_Cover
99 28 9 5 69 92 53 81 85 54 64 99 99 82 6 86 100 100 100 100 100 100 100 100 91 71 43 32 36 33 28 45 100 38 5 5 5 61 100 98 100 89 92
37 70 6 43 65 96 100 100 100 100 100 27 5 5 6 14 93 21 18 99 100 79 100 65 6 6 8 16 7 5 5 17 99 5 5 9 32 66 67 99 98 94 100
90 37 76 94 38 12 15 61 100 44 5 100 97 58 12 52 4 15 16 46 13 34 7 5 5 5 5 5 59 5 5 22 100 100 61 87 15 5 6 19 5 5 100
100 90 5 54 37 24 48 100 100 59 11 100 100 96 58 11 5 29 16 5 5 5 5 5 5 4 5 5 14 5 4 5 7 68 86 82 27 5 5 5 11 56 100
100 100 46 98 100 100 100 96 23 5 5 18 74 8 5 5 5 0 0 0 0 0 0 0 2 5 5 5 5 5 5 5 5 5 5 29 81 5 5 44 6 27 100
100 100 100 100 96 23 37 5 5 5 0 0 0 0 0 1 0 0 5 5 5 5 3 0 0 0 0 0 5 5 7 24 92 100 87 48 53 34 5 6 95 94 95
97 41 77 19 5 5 5 17 5 0 0 1 1 5 0 2 0 5 5 17 100 5 0 0 0 0 0 2 5 5 6 92 100 86 57 67 18 49 12 5 45 96 94
47 5 5 5 5 5 5 5 0 2 4 5 5 2 4 0 0 4 5 4 94 4 0 0 0 0 0 3 10 43 100 100 15 5 83 100 76 28 55 82 97 73 51
5 5 5 5 5 5 5 8 5 7 5 5 5 5 2 5 0 0 1 0 4 0 0 0 5 5 5 5 16 99 100 100 56 4 2 16 21 5 88 46 78 24 50
5 5 5 5 5 35 49 5 5 5 20 5 5 4 0 0 0 0 0 0 3 5 0 0 5 0 4 5 5 36 100 57 92 11 6 5 20 69 93 82 96 86 68
17 68 23 27 12 5 14 5 13 5 5 5 5 5 5 5 0 0 0 0 0 5 0 1 5 5 5 5 5 5 38 100 100 80 5 6 5 5 12 65 100 90 51
5 5 5 5 13 23 40 5 7 18 5 5 5 3 5 2 0 0 0 0 0 3 5 5 5 5 5 5 5 5 5 17 6 6 5 5 5 10 5 71 57 98 79
5 5 43 15 42 6 9 9 37 41 5 5 5 0 0 0 0 0 0 0 0 4 5 56 12 5 5 5 5 5 5 5 5 5 5 5 5 8 5 17 86 72 98
24 59 34 22 5 11 37 71 67 8 5 5 5 0 0 0 0 0 0 0 5 22 5 5 5 5 5 5 3 5 5 5 5 4 5 25 22 73 31 32 43 61 73
92 76 91 54 30 40 60 26 5 5 5 5 5 4 0 0 0 2 16 6 5 5 5 5 0 0 0 0 4 5 5 5 2 0 18 50 100 100 100 74 99 100 98
68 96 48 5 22 21 6 5 6 35 9 5 5 2 0 3 4 4 5 5 5 5 5 5 4 3 5 5 5 5 5 5 4 3 97 100 100 100 100 100 100 100 100
75 78 58 20 13 5 5 5 5 5 5 5 5 0 0 5 5 5 5 5 57 5 5 5 5 5 5 5 5 5 4 0 1 50 97 100 100 100 100 100 100 100 100
68 58 26 19 38 11 5 5 5 5 5 5 5 0 0 5 71 77 10 5 5 5 5 5 5 2 0 0 0 0 0 5 95 75 82 100 100 100 100 100 100 100 100
80 46 26 58 59 68 50 16 12 5 5 5 5 5 4 5 9 52 6 5 5 5 5 4 2 2 5 2 0 0 7 39 34 75 89 100 100 100 100 100 100 100 100
6 6 5 5 5 5 5 5 5 5 5 5 5 5 5 5 5 5 5 5 5 5 5 5 5 5 0 0 0 18 79 80 77 93 100 100 100 100 100 100 100 100 100
22 45 58 8 5 5 2 5 5 5 5 14 5 5 5 5 56 10 47 5 5 5 5 5 5 5 0 0 8 54 68 71 100 100 100 100 100 100 100 100 100 100 100
6 5 5 18 5 5 3 5 5 22 80 33 93 88 12 5 5 5 5 5 5 5 5 5 5 5 0 3 84 56 78 100 100 100 100 100 100 100 100 100 100 100 100
5 7 32 5 5 5 4 5 8 96 100 95 69 59 87 90 99 17 5 5 5 5 5 5 5 5 0 29 54 67 66 91 100 100 100 100 100 100 100 100 100 100 100
6 59 50 5 5 5 5 8 5 12 6 5 100 14 91 88 25 12 32 5 0 5 5 5 5 5 5 5 50 27 74 66 100 100 100 100 100 100 100 100 100 100 100
52 20 5 3 3 0 5 5 5 99 82 75 5 43 99 98 95 44 90 19 77 25 8 5 5 5 5 7 26 49 54 100 100 100 100 100 100 100 100 100 100 100 100
5 5 5 3 5 5 5 39 84 88 76 92 36 16 11 99 73 100 90 96 99 53 30 5 5 5 5 5 5 9 100 100 100 100 100 100 100 100 100 100 100 100 100